Météo par heure à Alisivka

Ce jour, 15 Mai, Samedi

Heure Température Précipitation Vent Pression Humidité
00:00 +15°C° 0 mm 2 m/s 745 mmHg 77%
01:00 +13°C° 0 mm 3 m/s 745 mmHg 78%
02:00 +13°C° 0 mm 3 m/s 745 mmHg 79%
03:00 +13°C° 0 mm 3 m/s 745 mmHg 79%
04:00 +14°C° 0 mm 2 m/s 745 mmHg 79%
05:00 +14°C° 0 mm 2 m/s 746 mmHg 79%
06:00 +16°C° 0 mm 2 m/s 746 mmHg 71%
07:00 +18°C° 0 mm 3 m/s 746 mmHg 64%
08:00 +20°C° 0 mm 3 m/s 746 mmHg 57%
09:00 +21°C° 0 mm 3 m/s 746 mmHg 53%
10:00 +22°C° 0 mm 4 m/s 747 mmHg 49%
11:00 +23°C° 0 mm 4 m/s 747 mmHg 45%
12:00 +25°C° 0 mm 4 m/s 747 mmHg 44%
13:00 +25°C° 0 mm 4 m/s 746 mmHg 43%
14:00 +25°C° 0 mm 5 m/s 746 mmHg 42%
15:00 +25°C° 0 mm 4 m/s 746 mmHg 45%
16:00 +25°C° 0 mm 4 m/s 746 mmHg 48%
17:00 +24°C° 0 mm 3 m/s 746 mmHg 51%
18:00 +21°C° 0 mm 3 m/s 746 mmHg 56%
19:00 +20°C° 0 mm 2 m/s 746 mmHg 60%
20:00 +18°C° 0 mm 2 m/s 746 mmHg 64%
21:00 +18°C° 0 mm 1 m/s 746 mmHg 65%
22:00 +18°C° 0 mm 1 m/s 746 mmHg 66%
23:00 +15°C° 0 mm 0 m/s 747 mmHg 67%

Demain, 16 Mai, Dimanche

Heure Température Précipitation Vent Pression Humidité
00:00 +15°C° 0 mm 0 m/s 747 mmHg 68%
01:00 +15°C° 0 mm 1 m/s 747 mmHg 68%
02:00 +15°C° 0 mm 1 m/s 747 mmHg 69%
03:00 +15°C° 0 mm 1 m/s 747 mmHg 70%
04:00 +15°C° 0 mm 1 m/s 747 mmHg 71%
05:00 +15°C° 0 mm 1 m/s 747 mmHg 73%
06:00 +17°C° 0 mm 2 m/s 747 mmHg 67%
07:00 +19°C° 0 mm 2 m/s 747 mmHg 61%
08:00 +22°C° 0 mm 3 m/s 747 mmHg 56%
09:00 +24°C° 0 mm 3 m/s 746 mmHg 53%
10:00 +25°C° 0 mm 3 m/s 746 mmHg 51%
11:00 +26°C° 0 mm 4 m/s 746 mmHg 48%
12:00 +27°C° 0 mm 4 m/s 745 mmHg 47%
13:00 +27°C° 0 mm 4 m/s 745 mmHg 47%
14:00 +28°C° 0 mm 4 m/s 745 mmHg 46%
15:00 +27°C° 0.1 mm 5 m/s 744 mmHg 52%
16:00 +27°C° 0.1 mm 5 m/s 744 mmHg 57%
17:00 +26°C° 0.1 mm 5 m/s 743 mmHg 62%
18:00 +23°C° 0 mm 4 m/s 743 mmHg 67%
19:00 +22°C° 0 mm 4 m/s 743 mmHg 71%
20:00 +20°C° 0 mm 3 m/s 743 mmHg 76%
21:00 +19°C° 0 mm 3 m/s 742 mmHg 75%
22:00 +18°C° 0 mm 3 m/s 742 mmHg 74%
23:00 +18°C° 0 mm 3 m/s 742 mmHg 72%

Après-demain, 17 Mai, Lundi

Heure Température Précipitation Vent Pression Humidité
00:00 +17°C° 0 mm 3 m/s 741 mmHg 74%
01:00 +16°C° 0 mm 3 m/s 741 mmHg 75%
02:00 +16°C° 0 mm 3 m/s 741 mmHg 76%
03:00 +16°C° 0 mm 3 m/s 741 mmHg 76%
04:00 +16°C° 0 mm 3 m/s 741 mmHg 76%
05:00 +16°C° 0 mm 3 m/s 741 mmHg 76%
06:00 +18°C° 0 mm 4 m/s 741 mmHg 69%
07:00 +19°C° 0 mm 5 m/s 740 mmHg 62%
08:00 +21°C° 0 mm 6 m/s 740 mmHg 55%
09:00 +23°C° 0 mm 6 m/s 740 mmHg 52%
10:00 +24°C° 0 mm 6 m/s 740 mmHg 50%
11:00 +27°C° 0 mm 7 m/s 741 mmHg 47%
12:00 +27°C° 0 mm 6 m/s 740 mmHg 48%
13:00 +28°C° 0 mm 6 m/s 740 mmHg 49%
14:00 +29°C° 0 mm 6 m/s 740 mmHg 50%
15:00 +28°C° 0 mm 6 m/s 740 mmHg 54%
16:00 +27°C° 0 mm 6 m/s 740 mmHg 58%
17:00 +26°C° 0 mm 6 m/s 740 mmHg 62%
18:00 +23°C° 0 mm 5 m/s 741 mmHg 67%
19:00 +21°C° 0 mm 5 m/s 741 mmHg 73%
20:00 +20°C° 0 mm 5 m/s 741 mmHg 78%
21:00 +19°C° 0 mm 5 m/s 741 mmHg 80%
22:00 +17°C° 0 mm 5 m/s 741 mmHg 83%
23:00 +16°C° 0 mm 6 m/s 741 mmHg 85%

18 Mai, Mardi

Heure Température Précipitation Vent Pression Humidité
00:00 +15°C° 0 mm 5 m/s 741 mmHg 85%
01:00 +15°C° 0 mm 5 m/s 741 mmHg 85%
02:00 +14°C° 0 mm 5 m/s 742 mmHg 85%
03:00 +14°C° 0 mm 5 m/s 742 mmHg 86%
04:00 +14°C° 0 mm 5 m/s 742 mmHg 86%
05:00 +14°C° 0 mm 5 m/s 742 mmHg 87%
06:00 +15°C° 0 mm 6 m/s 742 mmHg 82%
07:00 +16°C° 0 mm 6 m/s 742 mmHg 78%
08:00 +19°C° 0 mm 6 m/s 743 mmHg 73%
09:00 +20°C° 0 mm 6 m/s 743 mmHg 67%
10:00 +22°C° 0 mm 7 m/s 742 mmHg 60%
11:00 +23°C° 0 mm 7 m/s 742 mmHg 54%
12:00 +24°C° 0.1 mm 7 m/s 742 mmHg 53%
13:00 +24°C° 0.1 mm 6 m/s 742 mmHg 52%
14:00 +24°C° 0.1 mm 6 m/s 742 mmHg 51%
15:00 +23°C° 0.1 mm 6 m/s 742 mmHg 55%
16:00 +23°C° 0.1 mm 5 m/s 742 mmHg 59%
17:00 +22°C° 0.1 mm 5 m/s 742 mmHg 62%
18:00 +21°C° 0.3 mm 5 m/s 742 mmHg 69%
19:00 +19°C° 0.3 mm 5 m/s 742 mmHg 76%
20:00 +17°C° 0.3 mm 5 m/s 742 mmHg 83%
21:00 +16°C° 0.2 mm 5 m/s 742 mmHg 87%
22:00 +16°C° 0.2 mm 5 m/s 742 mmHg 90%
23:00 +15°C° 0.2 mm 5 m/s 741 mmHg 94%

19 Mai, Mercredi

Heure Température Précipitation Vent Pression Humidité
00:00 +15°C° 0.6 mm 6 m/s 741 mmHg 93%
01:00 +15°C° 0.6 mm 6 m/s 741 mmHg 92%
02:00 +15°C° 0.6 mm 6 m/s 741 mmHg 91%
03:00 +14°C° 0.9 mm 6 m/s 741 mmHg 92%
04:00 +14°C° 0.9 mm 6 m/s 742 mmHg 92%
05:00 +14°C° 0.9 mm 6 m/s 742 mmHg 93%
06:00 +14°C° 0.2 mm 6 m/s 742 mmHg 87%
07:00 +15°C° 0.2 mm 6 m/s 742 mmHg 82%
08:00 +16°C° 0.2 mm 6 m/s 743 mmHg 76%
09:00 +17°C° 0 mm 6 m/s 743 mmHg 69%
10:00 +19°C° 0 mm 6 m/s 743 mmHg 62%
11:00 +20°C° 0 mm 5 m/s 744 mmHg 55%
12:00 +20°C° 0.4 mm 5 m/s 744 mmHg 56%
13:00 +19°C° 0.4 mm 5 m/s 744 mmHg 58%
14:00 +19°C° 0.4 mm 5 m/s 744 mmHg 59%
15:00 +19°C° 0.4 mm 4 m/s 745 mmHg 63%
16:00 +18°C° 0.4 mm 4 m/s 745 mmHg 66%
17:00 +17°C° 0.4 mm 3 m/s 745 mmHg 69%
18:00 +16°C° 0 mm 3 m/s 745 mmHg 71%
19:00 +15°C° 0 mm 2 m/s 745 mmHg 74%
20:00 +15°C° 0 mm 2 m/s 746 mmHg 76%
21:00 +14°C° 0 mm 2 m/s 746 mmHg 78%
22:00 +13°C° 0 mm 2 m/s 746 mmHg 80%
23:00 +13°C° 0 mm 1 m/s 746 mmHg 82%

20 Mai, Jeudi

Heure Température Précipitation Vent Pression Humidité
00:00 +12°C° 0 mm 1 m/s 746 mmHg 83%
01:00 +12°C° 0 mm 1 m/s 746 mmHg 84%
02:00 +12°C° 0 mm 1 m/s 747 mmHg 85%
03:00 +12°C° 0 mm 1 m/s 747 mmHg 84%
04:00 +12°C° 0 mm 1 m/s 747 mmHg 83%
05:00 +13°C° 0 mm 1 m/s 747 mmHg 83%
06:00 +14°C° 0 mm 1 m/s 748 mmHg 77%
07:00 +16°C° 0 mm 2 m/s 748 mmHg 70%
08:00 +18°C° 0 mm 2 m/s 748 mmHg 64%
09:00 +19°C° 0 mm 2 m/s 748 mmHg 60%
10:00 +20°C° 0 mm 2 m/s 748 mmHg 55%
11:00 +21°C° 0 mm 2 m/s 747 mmHg 51%
12:00 +21°C° 0 mm 2 m/s 747 mmHg 50%
13:00 +21°C° 0 mm 2 m/s 746 mmHg 48%
14:00 +23°C° 0 mm 2 m/s 746 mmHg 47%
15:00 +21°C° 0 mm 2 m/s 746 mmHg 54%
16:00 +20°C° 0 mm 2 m/s 746 mmHg 60%
17:00 +19°C° 0 mm 2 m/s 745 mmHg 67%
18:00 +18°C° 0.2 mm 2 m/s 745 mmHg 73%
19:00 +17°C° 0.2 mm 2 m/s 745 mmHg 79%
20:00 +16°C° 0.2 mm 2 m/s 745 mmHg 85%
21:00 +15°C° 0.3 mm 2 m/s 745 mmHg 88%
22:00 +15°C° 0.3 mm 2 m/s 745 mmHg 92%
23:00 +14°C° 0.3 mm 2 m/s 744 mmHg 95%
Voir plus

Nous avons besoin de votre consentement

Meteoprog et ses fournisseurs de services peuvent stocker et accéder à des données personnelles telles que des cookies, des identifiants d'appareils ou d'autres technologies similaires sur votre appareil et traiter ces données pour personnaliser le contenu et les publicités, ainsi que pour fournir des fonctionnalités de médias sociaux et analyser le trafic.

  • Stocker et/ou accéder à des informations sur votre appareil

    Des cookies, des identifiants d'appareils ou d'autres informations peuvent être stockés ou accessibles sur votre appareil aux fins indiquées ci-dessus.

  • Annonces et contenus personnalisés, mesure des annonces et des contenus, connaissance de l'audience et développement de produits

    Les annonces et le contenu peuvent être personnalisés en fonction d'un profil. D'autres données peuvent être ajoutées pour mieux personnaliser les annonces et le contenu. Les performances des publicités et du contenu peuvent être mesurées. Il est possible d'obtenir des informations sur le public qui a vu les publicités et le contenu. Ces données peuvent être utilisées pour développer ou améliorer l'expérience de l'utilisateur, les systèmes et les logiciels.

En cliquant sur "J'accepte", vous autorisez l'utilisation de cookies, des identifiants d'appareils, des balises web ou d'autres technologies similaires. Vos paramètres peuvent être modifiés dans le navigateur de votre appareil.

Dans certains cas, des intérêts légitimes peuvent être invoqués plutôt qu'un consentement. Vous pouvez en savoir plus à ce sujet dans notre Politique de confidentialité et de cookies.